This demonstration page uses our WeatherBlox Daily Observations layout. Learn more.

Left ArrowRight Arrow

Hourly Observations for September 29, 2022

Temp ( °F °C ) Dew Point ( °F °C ) Humidity (%) Winds ( mph kmh ) Pressure ( in mb ) Visibility ( mi km ) Precip ( " mm )
12:55 am 00:55 Clear 48 8.7 35 1.6 61 61 ESE 5 7 30.41 1030 10 16 0.00 0.00
1:55 am 01:55 Clear 50 9.9 36 2 58 58 SE 10 17 30.41 1030 10 16 0.00 0.00
2:55 am 02:55 Clear 47 8.4 36 2.2 65 65 E 3 6 30.42 1030 10 16 0.00 0.00
3:55 am 03:55 Clear 46 7.6 36 2.1 68 68 SE 6 9 30.40 1030 10 16 0.00 0.00
4:55 am 04:55 Clear 45 7.3 36 2.4 71 71 Calm 30.38 1029 10 16 0.00 0.00
5:55 am 05:55 Clear 44 6.8 37 2.5 74 74 ESE 5 7 30.40 1029 10 16 0.00 0.00
6:55 am 06:55 Clear 44 6.6 37 2.9 77 77 ESE 5 7 30.40 1029 10 16 0.00 0.00
7:55 am 07:55 Sunny 45 7.2 38 3.3 76 76 ESE 6 9 30.41 1030 10 16 0.00 0.00
8:55 am 08:55 Sunny 50 10.1 39 4 66 66 SE 9 15 30.41 1030 10 16 0.00 0.00
9:55 am 09:55 Sunny 56 13.2 39 3.8 53 53 SSE 14 22 30.41 1030 10 16 0.00 0.00
10:55 am 10:55 Sunny 62 16.7 39 3.7 42 42 SSE 21 33 30.38 1029 10 16 0.00 0.00
11:55 am 11:55 Sunny 66 18.9 38 3.1 35 35 SSE 16 26 30.35 1028 10 16 0.00 0.00
12:55 pm 12:55 Mostly Sunny 70 20.9 36 2.2 29 29 SSE 16 26 30.32 1027 10 16 0.00 0.00
1:55 pm 13:55 Mostly Sunny 73 22.6 38 3.2 28 28 SE 17 28 30.29 1026 10 16 0.00 0.00
2:55 pm 14:55 Mostly Sunny 74 23.6 39 4 28 28 SSE 16 26 30.25 1024 10 16 0.00 0.00
3:55 pm 15:55 Sunny 75 23.8 39 3.7 27 27 SSE 17 28 30.22 1023 10 16 0.00 0.00
4:55 pm 16:55 Sunny 74 23.6 39 4 28 28 SE 16 26 30.20 1023 10 16 0.00 0.00
5:55 pm 17:55 Sunny 73 22.9 38 3.4 28 28 SSE 14 22 30.19 1022 10 16 0.00 0.00
6:55 pm 18:55 Sunny 69 20.6 37 2.9 31 31 SE 12 19 30.18 1022 10 16 0.00 0.00
7:55 pm 19:55 Clear 62 16.6 37 2.9 40 40 ESE 9 15 30.19 1022 10 16 0.00 0.00
8:55 pm 20:55 Mostly Clear 59 15.2 39 4 47 47 SE 10 17 30.19 1023 10 16 0.00 0.00
9:55 pm 21:55 Clear 60 15.3 38 3.4 45 45 SE 14 22 30.20 1023 10 16 0.00 0.00
10:55 pm 22:55 Clear 59 14.8 38 3.6 47 47 SE 10 17 30.20 1023 10 16 0.00 0.00
11:55 pm 23:55 Mostly Clear 56 13.6 38 3.6 51 51 SE 10 17 30.20 1023 10 16 0.00 0.00

Powered by AerisWeather